This is the latest recevied weather packets stored in our database for station/object PA3CPS. If no packets are shown the sender has not sent any weather packets the latest 10 day(s).
| Time | Temp. | Humidity | Pressure | Rain* | Wind** | Luminosity | Snow |
|---|---|---|---|---|---|---|---|
| 1778069943 | 11.11° C | 72% | 1008.6 hPa | 0 mm | - | 183 W/m² | - |
| 1778069643 | 11.11° C | 72% | 1008.6 hPa | 0 mm | - | 185 W/m² | - |
| 1778069342 | 11.11° C | 71% | 1008.5 hPa | 0 mm | - | 186 W/m² | - |
| 1778069038 | 11.11° C | 70% | 1008.5 hPa | 0 mm | - | 202 W/m² | - |
| 1778068739 | 11.11° C | 70% | 1008.4 hPa | 0 mm | - | 179 W/m² | - |
| 1778068437 | 11.67° C | 70% | 1008.3 hPa | 0 mm | - | 176 W/m² | - |
| 1778068139 | 11.67° C | 70% | 1008.3 hPa | 0 mm | - | 190 W/m² | - |
| 1778067837 | 11.67° C | 70% | 1008.4 hPa | 0 mm | - | 186 W/m² | - |
| 1778067534 | 11.67° C | 70% | 1008.5 hPa | 0 mm | - | 202 W/m² | - |
| 1778067233 | 11.67° C | 69% | 1008.5 hPa | 0 mm | - | 223 W/m² | - |
| 1778066931 | 11.67° C | 70% | 1008.5 hPa | 0 mm | - | 239 W/m² | - |
| 1778066627 | 11.67° C | 72% | 1008.6 hPa | 0 mm | - | 253 W/m² | - |
| 1778066326 | 11.67° C | 75% | 1008.5 hPa | 0 mm | - | 258 W/m² | - |
| 1778066024 | 11.67° C | 74% | 1008.5 hPa | 0 mm | - | 251 W/m² | - |
| 1778065721 | 11.11° C | 74% | 1008.5 hPa | 0 mm | - | 257 W/m² | - |
| 1778065419 | 11.11° C | 72% | 1008.5 hPa | 0 mm | - | 267 W/m² | - |
| 1778065115 | 11.11° C | 74% | 1008.6 hPa | 0 mm | - | 257 W/m² | - |
| 1778064814 | 11.11° C | 73% | 1008.6 hPa | 0 mm | - | 230 W/m² | - |
| 1778064512 | 11.11° C | 73% | 1008.6 hPa | 0 mm | - | 223 W/m² | - |
| 1778064213 | 11.11° C | 73% | 1008.5 hPa | 0 mm | - | 234 W/m² | - |
| 1778063911 | 11.11° C | 74% | 1008.5 hPa | 0 mm | - | 237 W/m² | - |
| 1778063612 | 11.11° C | 73% | 1008.4 hPa | 0 mm | - | 213 W/m² | - |
| 1778063311 | 11.11° C | 74% | 1008.3 hPa | 0 mm | - | 195 W/m² | - |
| 1778063012 | 11.11° C | 75% | 1008.4 hPa | 0 mm | - | 204 W/m² | - |
| 1778062711 | 11.11° C | 76% | 1008.4 hPa | 0 mm | - | 232 W/m² | - |
* Rain latest hour (hover to see other rain measurements)
** Current wind speed in m/s (hover to see current wind gust speed)